Pinedale, WY

10:41 PM MST on January 23, 2017 (GMT -0700)
Wenz

Weather History for KPNA - December, 2011

Change the Weather History Date:

Wednesday, December 14, 2011

  Actual Average (KBPI) Record (KBPI)
Temperature  
Mean Temperature 16 °F -  
Max Temperature 28 °F 24 °F 46 °F (1988)
Min Temperature 4 °F 0 °F -18 °F (1984)
Degree Days  
Heating Degree Days 49    
Moisture  
Dew Point 13 °F    
Average Humidity 81    
Maximum Humidity 98    
Minimum Humidity 63    
Precipitation  
Precipitation 0.00 in - - ()
Sea Level Pressure  
Sea Level Pressure 29.94 in    
Wind  
Wind Speed 12 mph (WNW)    
Max Wind Speed 29 mph    
Max Gust Speed 38 mph    
Visibility 10 miles    
Events Snow    
Averages and records for this station are not official NWS values.
T = Trace of Precipitation, MM = Missing Value Source: NWS Daily Summary

Daily Weather History Graph

Daily Weather History Graph

Search for Another Location

Airport or City:

Trip Planner

Search our weather history database for the weather conditions in past years. The results will help you decide how hot, cold, wet, or windy it might be!

Date:

Astronomy

Dec. 14, 2011 Rise Set
Actual Time 7:42 AM MST 4:45 PM MST
Civil Twilight 7:09 AM MST 5:17 PM MST
Nautical Twilight 6:34 AM MST 5:53 PM MST
Astronomical Twilight 5:59 AM MST 6:27 PM MST
Moon 9:14 PM MST (12/14) 10:24 AM MST (12/14)
Length of Visible Light 10h 08m
Length of Day
9h 03m
Waning Gibbous, 83% of the Moon is Illuminated
Dec 14
Waning Gibbous
Dec 17
Last Quarter
Dec 24
New
Dec 31
First Quarter
Jan 9
Full

Hourly Weather History & Observations

Time (MST) Temp. Windchill Dew Point Humidity Pressure Visibility Wind Dir Wind Speed Gust Speed Precip Events Conditions
12:15 AM 8.1 °F 1.4 °F 6.4 °F 93% 29.90 in 5.0 mi West 3.5 mph - N/A   Clear
12:35 AM 5.9 °F -4.5 °F 4.5 °F 94% 29.90 in 2.0 mi WNW 5.8 mph - N/A   Clear
12:55 AM 8.6 °F -1.3 °F 7.7 °F 96% 29.90 in 10.0 mi West 5.8 mph - N/A   Scattered Clouds
1:15 AM 8.2 °F -4.1 °F 7.2 °F 95% 29.89 in 10.0 mi West 8.1 mph - N/A   Scattered Clouds
1:35 AM 6.6 °F -6.1 °F 5.0 °F 93% 29.89 in 10.0 mi West 8.1 mph - N/A   Clear
1:55 AM 5.9 °F -4.5 °F 4.3 °F 93% 29.89 in 10.0 mi West 5.8 mph - N/A Snow Light Snow
2:15 AM 6.3 °F -7.5 °F 4.8 °F 94% 29.89 in 10.0 mi WNW 9.2 mph - N/A   Scattered Clouds
2:35 AM 6.1 °F -9.5 °F 4.6 °F 94% 29.89 in 10.0 mi NW 11.5 mph - N/A   Clear
2:55 AM 5.7 °F -9.1 °F 4.5 °F 95% 29.90 in 10.0 mi NW 10.4 mph - N/A   Clear
3:15 AM 4.3 °F -6.5 °F 2.1 °F 91% 29.90 in 10.0 mi NW 5.8 mph - N/A   Clear
3:35 AM 8.2 °F 1.6 °F 7.0 °F 95% 29.89 in 10.0 mi WNW 3.5 mph - N/A   Clear
3:55 AM 11.7 °F 0.0 °F 11.1 °F 98% 29.88 in 10.0 mi WNW 8.1 mph - N/A   Clear
4:15 AM 7.2 °F -1.5 °F 5.5 °F 93% 29.88 in 10.0 mi West 4.6 mph - N/A   Clear
4:35 AM 6.1 °F -4.3 °F 4.6 °F 94% 29.88 in 10.0 mi NW 5.8 mph - N/A   Clear
4:55 AM 5.9 °F -1.1 °F 4.5 °F 94% 29.88 in 10.0 mi West 3.5 mph - N/A   Clear
5:15 AM 5.7 °F -4.8 °F 4.1 °F 93% 29.88 in 10.0 mi West 5.8 mph - N/A   Clear
5:35 AM 7.5 °F - 5.9 °F 93% 29.88 in 10.0 mi Calm Calm - N/A   Mostly Cloudy
5:55 AM 8.1 °F -7.0 °F 7.3 °F 97% 29.88 in 10.0 mi NW 11.5 mph - N/A   Overcast
6:35 AM 16.5 °F 3.0 °F 15.4 °F 96% 29.89 in 10.0 mi WNW 12.7 mph - N/A   Overcast
6:55 AM 18.1 °F 6.3 °F 15.4 °F 89% 29.90 in 10.0 mi West 10.4 mph - N/A   Overcast
7:15 AM 18.1 °F 5.6 °F 15.4 °F 89% 29.90 in 10.0 mi WNW 11.5 mph - N/A   Mostly Cloudy
7:35 AM 18.5 °F 6.8 °F 16.2 °F 91% 29.90 in 10.0 mi WNW 10.4 mph - N/A   Mostly Cloudy
7:55 AM 20.3 °F 7.2 °F 17.2 °F 88% 29.90 in 10.0 mi WNW 13.8 mph 20.7 mph N/A   Overcast
8:15 AM 20.8 °F 8.4 °F 17.4 °F 87% 29.91 in 10.0 mi WNW 12.7 mph - N/A   Overcast
8:35 AM 21.0 °F 7.6 °F 17.4 °F 86% 29.92 in 10.0 mi WNW 15.0 mph - N/A   Overcast
8:55 AM 21.7 °F 8.5 °F 17.2 °F 83% 29.93 in 10.0 mi WNW 15.0 mph 20.7 mph N/A   Overcast
9:15 AM 21.9 °F 8.2 °F 17.2 °F 82% 29.93 in 10.0 mi WNW 16.1 mph - N/A   Overcast
9:35 AM 21.7 °F 8.5 °F 16.7 °F 81% 29.93 in 10.0 mi WNW 15.0 mph - N/A   Scattered Clouds
9:55 AM 23.0 °F 9.2 °F 17.1 °F 78% 29.95 in 10.0 mi WNW 17.3 mph 20.7 mph N/A   Scattered Clouds
10:15 AM 23.2 °F 10.3 °F 16.9 °F 77% 29.95 in 10.0 mi WNW 15.0 mph 20.7 mph N/A   Overcast
10:35 AM 23.9 °F 8.4 °F 16.7 °F 74% 29.95 in 10.0 mi WNW 23.0 mph 28.8 mph N/A   Overcast
10:55 AM 23.2 °F 9.4 °F 16.5 °F 76% 29.96 in 10.0 mi WNW 17.3 mph 27.6 mph N/A   Overcast
11:15 AM 23.5 °F 9.0 °F 16.3 °F 74% 29.95 in 10.0 mi WNW 19.6 mph 31.1 mph N/A   Scattered Clouds
11:35 AM 25.9 °F 10.4 °F 17.4 °F 70% 29.95 in 10.0 mi WNW 25.3 mph 31.1 mph N/A   Scattered Clouds
11:55 AM 25.7 °F 10.5 °F 16.5 °F 68% 29.95 in 10.0 mi WNW 24.2 mph 31.1 mph N/A   Scattered Clouds
12:15 PM 27.0 °F 12.8 °F 16.9 °F 66% 29.95 in 10.0 mi WNW 21.9 mph 31.1 mph N/A   Scattered Clouds
12:35 PM 26.1 °F 11.0 °F 17.4 °F 70% 29.95 in 10.0 mi WNW 24.2 mph 32.2 mph N/A   Clear
12:55 PM 27.5 °F 13.2 °F 17.8 °F 67% 29.95 in 10.0 mi WNW 23.0 mph 33.4 mph N/A   Clear
1:15 PM 27.1 °F 12.7 °F 16.5 °F 64% 29.95 in 10.0 mi WNW 23.0 mph 28.8 mph N/A   Scattered Clouds
1:35 PM 28.4 °F 13.5 °F 17.1 °F 63% 29.95 in 10.0 mi WNW 26.5 mph 34.5 mph N/A   Clear
2:15 PM 28.4 °F 13.0 °F 17.2 °F 63% 29.95 in 10.0 mi WNW 28.8 mph 34.5 mph N/A   Clear
2:35 PM 28.4 °F 15.1 °F 17.1 °F 63% 29.95 in 10.0 mi WNW 20.7 mph 28.8 mph N/A   Clear
2:55 PM 27.3 °F 12.4 °F 16.7 °F 64% 29.97 in 10.0 mi WNW 25.3 mph 31.1 mph N/A   Clear
3:15 PM 27.5 °F 13.2 °F 16.7 °F 64% 29.97 in 10.0 mi WNW 23.0 mph 31.1 mph N/A   Clear
3:35 PM 27.3 °F 13.3 °F 16.5 °F 64% 29.98 in 10.0 mi WNW 21.9 mph 28.8 mph N/A   Clear
3:55 PM 26.1 °F 10.4 °F 16.5 °F 67% 29.98 in 10.0 mi WNW 26.5 mph 38.0 mph N/A   Clear
4:15 PM 25.2 °F 9.5 °F 16.2 °F 69% 30.00 in 10.0 mi NW 25.3 mph 32.2 mph N/A   Clear
4:35 PM 24.3 °F 8.9 °F 15.8 °F 70% 30.02 in 10.0 mi WNW 23.0 mph 27.6 mph N/A   Clear
4:55 PM 23.9 °F 8.4 °F 15.8 °F 71% 30.02 in 10.0 mi WNW 23.0 mph 29.9 mph N/A   Clear
5:15 PM 23.0 °F 6.3 °F 16.2 °F 75% 30.01 in 10.0 mi WNW 26.5 mph 34.5 mph N/A   Clear
5:35 PM 22.8 °F 6.3 °F 16.2 °F 76% 30.03 in 10.0 mi WNW 25.3 mph 34.5 mph N/A   Clear
5:55 PM 22.5 °F 7.6 °F 16.2 °F 77% 30.03 in 10.0 mi WNW 19.6 mph 28.8 mph N/A   Clear
6:15 PM 22.1 °F 6.8 °F 16.2 °F 78% 30.04 in 10.0 mi WNW 20.7 mph 26.5 mph N/A   Clear
6:35 PM 21.7 °F 7.1 °F 15.8 °F 78% 30.05 in 10.0 mi WNW 18.4 mph 24.2 mph N/A   Clear
6:55 PM 21.0 °F 7.6 °F 15.6 °F 80% 30.05 in 10.0 mi WNW 15.0 mph 20.7 mph N/A   Clear
7:35 PM 20.7 °F 8.8 °F 14.5 °F 77% 30.07 in 10.0 mi NNW 11.5 mph - N/A   Clear
7:55 PM 19.0 °F 7.5 °F 13.6 °F 79% 30.08 in 10.0 mi NW 10.4 mph - N/A   Clear
8:15 PM 16.7 °F 3.8 °F 12.6 °F 84% 30.08 in 10.0 mi NW 11.5 mph - N/A   Clear
8:35 PM 16.2 °F 4.7 °F 12.4 °F 85% 30.09 in 10.0 mi NNW 9.2 mph - N/A   Scattered Clouds
8:55 PM 15.6 °F 10.0 °F 12.0 °F 86% 30.09 in 10.0 mi NNE 3.5 mph - N/A   Scattered Clouds
9:15 PM 15.1 °F 7.7 °F 11.7 °F 86% 30.09 in 10.0 mi NNW 4.6 mph - N/A   Clear
9:35 PM 12.2 °F 2.9 °F 9.3 °F 88% 30.09 in 10.0 mi West 5.8 mph - N/A   Clear
9:55 PM 12.6 °F 0.2 °F 9.1 °F 86% 30.09 in 10.0 mi West 9.2 mph - N/A   Clear
10:15 PM 11.5 °F -1.1 °F 9.5 °F 92% 30.10 in 10.0 mi West 9.2 mph - N/A   Clear
10:35 PM 10.4 °F -1.5 °F 8.6 °F 92% 30.11 in 10.0 mi West 8.1 mph - N/A   Clear
10:55 PM 9.0 °F -2.2 °F 7.2 °F 92% 30.11 in 10.0 mi WNW 6.9 mph - N/A   Clear
11:15 PM 9.3 °F -3.8 °F 7.5 °F 92% 30.11 in 10.0 mi West 9.2 mph - N/A   Clear
11:35 PM 7.0 °F -4.5 °F 4.8 °F 91% 30.11 in 10.0 mi NNW 6.9 mph - N/A   Clear
11:55 PM 4.3 °F -4.9 °F 2.3 °F 91% 30.12 in 10.0 mi West 4.6 mph - N/A   Clear